Location: C&O Canal National Historical Park
(39.6184°N, 77.9938°W)
Time: 15:47:16
(UTC-05:00)

N. Korean satellite - Visible Passes

Search period start: 18 November 2018 00:00
Search period end: 28 November 2018 00:00
Orbit: 457 x 511 km, 97.2° (Epoch: 18 November)

Date Brightness Start Highest point End Pass type
(mag) Time Alt. Az. Time Alt. Az. Time Alt. Az.
18 Nov 9.9 05:35:15 10° ENE 05:37:03 14° E 05:38:50 10° SE visible
18 Nov 6.5 17:41:46 10° SSE 17:45:23 81° ENE 17:48:57 10° N visible
19 Nov 7.1 17:17:37 10° SE 17:20:57 36° ENE 17:24:14 10° N visible
19 Nov 10.1 18:53:03 10° WSW 18:54:32 12° W 18:56:00 10° WNW visible
20 Nov 7.4 06:18:17 10° NNE 06:21:40 53° E 06:25:01 10° S visible
20 Nov 9.1 18:26:54 10° SSW 18:29:53 24° W 18:32:50 10° NW visible
21 Nov 9.1 05:54:13 10° NE 05:57:05 24° E 05:59:56 10° SSE visible
21 Nov 7.5 18:01:48 10° S 18:05:18 51° W 18:08:46 10° NNW visible
22 Nov 10.0 05:31:02 10° ENE 05:32:25 12° E 05:33:48 10° ESE visible
22 Nov 6.4 17:37:15 10° SSE 17:40:47 70° ENE 17:44:19 10° N visible
23 Nov 10.0 18:48:04 10° SW 18:49:53 13° W 18:51:43 10° WNW visible
24 Nov 7.7 06:13:41 10° NNE 06:17:02 46° E 06:20:21 10° S visible
24 Nov 8.8 18:22:11 10° SSW 18:25:14 27° W 18:28:17 10° NW visible
25 Nov 9.3 05:49:41 10° NE 05:52:24 22° E 05:55:09 10° SSE visible
25 Nov 7.1 17:57:10 10° S 18:00:40 59° W 18:04:08 10° NNW visible
26 Nov 10.2 05:26:59 10° E 05:27:44 11° E 05:28:29 10° ESE visible
26 Nov 6.5 17:32:40 10° SSE 17:36:10 60° ENE 17:39:37 10° N visible
27 Nov 6.4 06:33:25 10° N 06:36:52 87° WNW 06:40:21 10° SSW visible
27 Nov 9.8 18:43:06 10° SW 18:45:13 15° W 18:47:18 10° WNW visible
